User: anonymous   Login
Location: Newark
(42.8481°N, 0.4872°E)
Time: 13:04:18
(UTC+00:00)
Language:

Altair - Orbit

View from above orbital plane
View from above orbital plane
View from above satellite
View from above satellite

Ground track
Ground track

The orbit data is extracted from the following two-line orbital elements,

1    50U 60009B   20303.62962049 -.00000087 +00000-0 -72908-5 0  9994
2    50 047.2328 064.8312 0113115 005.5522 354.6496 12.20112892686609
Epoch (UTC): 29 October 2020 15:06:39
Eccentricity: 0.0113115
inclination: 47.2328°
perigee height: 1502 km
apogee height: 1682 km
right ascension of ascending node: 64.8312°
argument of perigee: 5.5522°
revolutions per day: 12.20112892
mean anomaly at epoch: 354.6496°
orbit number at epoch: 68660

The dashed part of the orbit path shows where the satellite is in the earth's shadow,  

DLR